EUTELSAT 25B (39233 NORAD) Tracking and Keplerian Element Data

This shows tracking and keplerian element data for the satellite.

Feedback or suggestion? Click here.




ElementValue
Catalog39233
NameEUTELSAT 25B
Epoch Orbit2134
Epoch Day202.91333153
Epoch Year2019
RAAN353.8171
Inclination0.0494
Eccentricity0.0001733
Argument of Perigee130.592
Mean Anonmoly169.2264
Mean Motion1.00272058
Decay Rate1.4E-06
L11 39233U 13044A 19202.91333153 .00000140 00000-0 00000-0 0 9999
L22 39233 0.0494 353.8171 0001733 130.5920 169.2264 1.00272058 21346

Live tracking and technical data element details for EUTELSAT 25B (NORAD 39233). EUTELSAT 25B can be tracked NOW for your location showing map with azimuth and elevation plus other details from your city location.

Track the satellite on the map from your city or location and see movement details for azimuth, elevation, latitude, longitude, range, height, and movement on the map or in text.







IsCatalogInMostPopularTable: catalog: 39233, numindb: 942
Update: records affected: 1



GetName: 39233 EUTELSAT 25B

Hit Count: updated at: Mon, 22 Jul 2019 11:34:30 GMT